Hourly Data Report for September 06, 2017

All times are specified in Local Standard Time (LST). Add 1 hour to adjust for Daylight Saving Time where and when it is observed.

ST. PETERS
PRINCE EDWARD ISLAND

46°27'01.000" N
62°34'33.000" W
29.70 m
8300562
71310
ZSP

Download Data

Hourly Data (September 2017)
Hourly Data Report for September 6, 2017
Temp Definition
°C
Dew Point Temp Definition
°C
Rel Hum Definition
%
Wind Dir Definition
10's deg

Wind Spd Definition
km/h
Visibility Definition
km
Stn Press Definition
kPa
Hmdx Definition


Wind Chill Definition


Weather Definition


TIME
00:00 19.4 16.9 85 19 21   101.01     LegendNANA
01:00 19.3 16.8 86 19 23   101.03     LegendNANA
02:00 19.2 16.8 86 19 25   101.07     LegendNANA
03:00 19.0 16.5 85 19 24   101.09     LegendNANA
04:00 18.6 16.4 87 18 19   101.10     LegendNANA
05:00 19.5 16.8 84 19 24   101.12     LegendNANA
06:00 19.4 17.1 87 18 25   101.17     LegendNANA
07:00 20.9 17.9 83 19 30   101.21 27   LegendNANA
08:00 22.5 18.5 78 20 30   101.26 29   LegendNANA
09:00 23.4 18.7 75 20 32   101.32 30   LegendNANA
10:00 24.8 18.9 70 21 37   101.36 31   LegendNANA
11:00 25.8 19.0 66 19 34   101.38 33   LegendNANA
12:00 26.6 18.7 62 19 32   101.40 33   LegendNANA
13:00 27.0 18.8 61 20 32   101.41 34   LegendNANA
14:00 27.7 19.2 60 20 26   101.41 35   LegendNANA
15:00 28.0 18.8 57 20 28   101.36 35   LegendNANA
16:00 26.6 17.7 58 18 27   101.32 32   LegendNANA
17:00 26.5 17.4 57 18 22   101.36 32   LegendNANA
18:00 24.7 18.1 67 17 14   101.38 31   LegendNANA
19:00 23.3 18.7 76 16 12   101.45 30   LegendNANA
20:00 22.2 18.7 81 16 10   101.49 29   LegendNANA
21:00 22.3 19.2 83 17 15   101.46 29   LegendNANA
22:00 21.7 19.2 86 16 11   101.47 29   LegendNANA
23:00 21.3 19.0 87 17 18   101.48 28   LegendNANA

Notes on Data Quality.

Legend

  • E = Estimated
  • M = Missing
  • NA = Not Available
  • ‡ = Partner data that is not subject to review by the National Climate Archives
Date modified: